Regional Weather Roundup
Issued by NWS

Home | Current Version | Previous Version | Graphics & Text | Print | Product List | Glossary On
Versions: 1 2 3 4 5 6 7 8 9 10 11 12 13 14 15 16 17 18 19 20 21 22 23 24 25 26 27 28 29 30 31 32 33 34 35 36 37 38 39 40 41 42 43 44 45 46 47 48 49 50
551
ASUS45 KBOU 241007
RWRCO

WEATHER ROUNDUP FOR COLORADO
NATIONAL WEATHER SERVICE DENVER/BOULDER CO
400 AM MDT TUE MAY 24 2016

NOTE: "FAIR" INDICATES FEW OR NO CLOUDS BELOW 12000 FEET WITH NO
SIGNIFICANT WEATHER AND/OR OBSTRUCTIONS TO VISIBILITY.

COZ001>005-013-030-031-241100-
...NORTHWEST COLORADO...

CITY           SKY/WX    TMP DP  RH WIND       PRES   REMARKS
CRAIG          FAIR      34  30  85 CALM      29.93S
HAYDEN         FAIR      41  27  56 E12       29.92F
MEEKER         FAIR      37  32  82 CALM      29.92S
MOUNT WERNER   NOT AVBL
STEAMBOAT SPGS FAIR      37  28  71 CALM      29.95S
WALDEN         FAIR      30  27  86 SE6       30.03F WCI  24
$$

COZ006>008-011-241100-
...WEST CENTRAL VALLEYS...

CITY           SKY/WX    TMP DP  RH WIND       PRES   REMARKS
GRAND JUNCTION FAIR      51  25  36 E14       29.82S
MONTROSE       FAIR      48  24  39 E7        29.92S
EAGLE          FAIR      36  27  69 E6        30.00R
RIFLE          FAIR      38  29  70 CALM      29.89S
DELTA          FAIR      47  24  40 CALM      29.91R
NUCLA          FAIR      55  16  21 E8        29.95R
$$

COZ017>023-064>068-241100-
...SOUTHWEST COLORADO...

CITY           SKY/WX    TMP DP  RH WIND       PRES   REMARKS
DURANGO        FAIR      36  23  59 N6        30.01R
CORTEZ         FAIR      38  25  59 NE5       29.96R
PAGOSA SPRINGS FAIR      37  24  61 CALM      30.06R
TELLURIDE      FAIR      47  12  24 SE10      30.09S
WOLF CREEK PAS FAIR      30  12  47 SW18G28   30.23S WCI  18
$$

COZ009-010-012-014-032>034-037-058>063-241100-
...CENTRAL COLORADO...

CITY           SKY/WX    TMP DP  RH WIND       PRES   REMARKS
ASPEN          FAIR      39  21  48 S5        29.99S
BUENA VISTA    FAIR      36  21  55 N5        30.04R
COPPER MTN     NOT AVBL
BERTHOUD PASS  FAIR      30  19  64 SW12      30.20F WCI  21
COTTONWOOD PAS FAIR      46  10  23 CALM      30.11S
GUNNISON       FAIR      32  19  59 CALM      30.07R
KREMMLING      FAIR      34  28  80 CALM      30.03R
LEADVILLE      FAIR      30  15  53 CALM      30.10R
MONARCH PASS   FAIR      32  14  47 MISG      30.30S
SALIDA         FAIR      41  22  46 W6        30.10R
SUNLIGHT       FAIR      36  16  44 CALM      30.14F
WILKERSON PASS FAIR      36  12  38 SW5       30.19S
$$

COZ069>075-241100-
...SAN LUIS VALLEY/SANGRE DE CRISTO MOUNTAINS...

CITY           SKY/WX    TMP DP  RH WIND       PRES   REMARKS
ALAMOSA        FAIR      40  23  50 S9        30.03R
LA VETA PASS   FAIR      43  14  31 S6        30.14S
SAGUACHE       FAIR      37  21  52 N12       30.05R
$$

COZ035-036-038>040-241100-
...NORTHERN COLORADO FRONT RANGE...

CITY           SKY/WX    TMP DP  RH WIND       PRES   REMARKS
DENVER INTL AP MOCLDY    47  41  80 SW7       29.93S
DMNS CITY PARK   N/A     47  42  84 SE7       29.93S
AURORA         PTCLDY    45  43  91 S7        29.94F
FRONT RANGE AP NOT AVBL
ERIE MUNI ARPT FAIR      42  40  95 CALM      29.93F
BOULDER MUN AP FAIR      45  43  93 CALM      29.93S
CENTENNIAL     FAIR      44  39  82 S5        29.95S
BROOMFIELD     FAIR      46  41  81 W5        29.95S
FORT COLLINS   FAIR      45  39  81 CALM      29.93F
LONGMONT       FAIR      45  39  80 CALM      29.95S
$$

COZ041-046-047-076>085-087-088-241100-
...PIKES PEAK/PALMER DIVIDE AND SOUTHERN FOOTHILLS...

CITY           SKY/WX    TMP DP  RH WIND       PRES   REMARKS
COLO. SPRINGS  FAIR      53  38  56 N5        29.96S
A. F. ACADEMY  MOCLDY    43  37  81 N7        29.96S
SCHRIEVER AFB  NOT AVBL
ELLICOTT       FAIR     N/A N/A N/A N6        29.94R
FALCON         FAIR      47  37  67 N3        29.99R
FORT CARSON    FAIR      47  40  75 N9        29.92F
LIMON          CLOUDY    49  43  80 NW8       29.94R
MONUMENT HILL  MOCLDY    41  37  87 W7        30.00F
TRINIDAD       FAIR      47  27  45 W7        29.93R
$$

COZ042>045-048>051-090-091-241100-
...NORTHEAST COLORADO...

CITY           SKY/WX    TMP DP  RH WIND       PRES   REMARKS
GREELEY ARPT   FAIR      43  37  81 W6        29.92F
AKRON          CLOUDY    47  44  90 NW8       29.90R
BURLINGTON     CLOUDY    55  42  61 N14       29.87S
WRAY           CLOUDY    52  48  87 NE8       29.86R
STERLING       FAIR      43  41  93 CALM      29.88S
HOLYOKE        FAIR      54  46  76 N12       29.87R
FORT MORGAN    FAIR      47  39  75 NW8       29.91S
$$

COZ086-089-092>099-241100-
...SOUTHEAST COLORADO...

CITY           SKY/WX    TMP DP  RH WIND       PRES   REMARKS
PUEBLO         FAIR      55  44  66 CALM      29.88S
LA JUNTA       FAIR      54  49  83 NW10      29.83S
LAMAR          FAIR      55  51  86 SW14      29.78R
SPRINGFIELD      N/A     58  55  90 SW10      29.82F
$$




USA.gov is the U.S. government's official web portal to all federal, state and local government web resources and services.